[[{"header":{"parameterUnit":"m.s-1","parameterCategory":1,"la1":30.2991,"la2":30.254,"lo1":-89.0895,"lo2":-89.0444,"dy":0.0017,"dx":0.0017,"nx":28,"ny":28,"refTime":"2023-08-09T09:00:00:Z","depth":0,"parameterNumber":2,"parameterNumberName":"U-component_of_WINDS"},"data":[0,0,0,0,0,0,0,0,0,0,0,0,0,0,0,0,0,0,0,0,0,0,0,0,0,0,0,0,0,0,0,0,0,0,0,0,0,0,0,0,0,0,0,0,0,0,0,0,0,0,0,0,0,0,0,0,0,0,2.637,2.6371,0,2.6471,2.6472,2.6474,2.6471,2.6469,2.6468,2.6467,2.6572,2.6576,2.658,0,0,0,0,0,0,0,0,0,0,0,0,0,2.6176,2.618,2.637,2.6371,2.6372,2.6471,2.6472,2.6474,2.6471,2.6469,2.6468,2.6466,2.6571,2.6575,2.658,0,0,0,0,0,0,0,0,0,0,0,0,0,2.6267,2.6181,2.637,2.6383,2.6385,2.6471,2.6472,2.6474,2.6471,2.6469,2.6467,2.6465,2.6569,2.6575,2.6581,2.6661,0,0,2.66,2.6602,0,0,0,0,0,0,0,0,2.6262,2.6274,2.638,2.6382,2.6385,2.6456,2.6443,2.6537,2.6472,2.6439,2.6467,2.6464,2.6535,2.6544,2.6568,2.6665,2.667,2.66,2.6604,2.6607,2.6608,0,0,0,0,0,0,0,2.6256,2.627,2.641,2.6381,2.6384,2.6384,2.6395,2.646,2.6497,2.6441,2.6442,2.6453,2.6536,2.6562,2.657,2.6672,2.66,2.6606,2.6609,2.6612,2.684,2.6842,0,0,0,0,0,0,2.6246,2.6265,2.6407,2.6413,2.6317,2.639,2.6401,2.6435,2.6497,2.6504,2.6455,2.6453,2.6552,2.6563,2.6574,2.6671,2.6607,2.6612,2.6616,2.6838,2.684,2.6843,0,0,0,0,0,0,2.6242,2.6259,2.6403,2.6339,2.6357,2.6395,2.6433,2.6439,2.6464,2.6507,2.6514,2.6474,2.6551,2.6565,2.6639,2.6674,2.6615,2.6621,2.6835,2.6839,2.6842,2.6865,0,0,0,0,0,0,2.6237,2.6258,2.6288,2.634,2.6361,2.6466,2.6436,2.6442,2.6474,2.6472,2.6527,2.6534,2.655,2.663,2.6645,2.6682,2.6626,2.6832,2.6836,2.6841,2.6861,2.6869,2.6876,0,0,0,0,0,2.623,2.629,2.6289,2.6306,2.6399,2.6468,2.648,2.6497,2.6477,2.6508,2.6536,2.6532,2.6668,2.6637,2.6654,2.6694,2.683,2.6835,2.684,2.6858,2.6868,2.6876,0,0,0,0,0,0,2.6242,2.6297,2.6297,2.6376,2.6417,2.6467,2.6506,2.6507,2.6555,2.6551,2.6571,2.6584,2.6657,2.6683,2.6648,2.6774,2.6746,2.6755,2.6754,2.6763,2.677,2.6762,2.6631,0,0,0,0,0,2.6254,2.6304,2.6351,2.6416,2.6437,2.6468,2.6499,2.6509,2.6552,2.657,2.6603,2.6646,2.6698,2.6733,2.6783,2.6865,2.6877,2.6901,2.6908,2.6914,2.6921,2.6966,2.6977,2.6861,2.6861,2.6861,0,0,2.6279,2.6315,2.6346,2.6419,2.6452,2.6505,2.6483,2.6539,2.6578,2.6579,2.665,2.6676,2.6725,2.6804,2.684,2.6827,2.6956,2.692,2.6925,2.6929,2.6973,2.6984,2.6994,2.6864,2.6864,2.6863,0,0,2.6351,2.6384,2.6442,2.6476,2.6526,2.6547,2.6561,2.6611,2.6628,2.67,2.6701,2.6749,2.6839,2.6874,2.6903,2.699,2.6988,2.7006,2.7043,2.7087,2.7096,2.7105,2.7135,2.7146,2.7014,2.7014,2.7014,0,2.6375,2.6454,2.6472,2.6529,2.6561,2.6564,2.6623,2.6655,2.6719,2.6742,2.6727,2.684,2.6874,2.696,2.6981,2.7005,2.7022,2.7,2.7094,2.7102,2.711,2.7139,2.7151,2.7015,2.7015,2.7015,2.7015,0,2.6482,2.6537,2.6578,2.664,2.6677,2.6734,2.6761,2.6797,2.6804,2.6827,2.69,2.6941,2.6999,2.7021,2.7029,2.7109,2.71,2.7089,2.7062,2.7123,2.715,2.7162,2.7018,2.7017,2.7017,2.7016,0,0,2.6563,2.6635,2.665,2.6678,2.6734,2.6777,2.6835,2.6892,2.6922,2.6967,2.7017,2.7093,2.7084,2.7117,2.7129,2.7168,2.7234,2.7153,2.7154,2.7166,2.7325,2.7331,2.7344,2.7233,2.7236,2.7238,2.732,0,2.6641,2.6743,2.6762,2.6852,2.6903,2.6906,2.6957,2.6998,2.7021,2.7067,2.7093,2.7146,2.713,2.7151,2.7189,2.7218,2.7266,2.7212,2.728,2.7282,2.7266,2.7359,2.7366,2.7442,2.7331,2.7333,2.7334,0,2.6744,2.6791,2.6886,2.6936,2.6958,2.7004,2.7058,2.7103,2.7149,2.7163,2.7201,2.7208,2.727,2.724,2.7325,2.7288,2.7317,2.7335,2.7339,2.7345,2.7311,2.7367,2.7467,2.7478,2.7352,2.735,2.7349,0,2.6793,2.6881,2.6949,2.6973,2.7033,2.7065,2.7091,2.7136,2.7169,2.7217,2.7239,2.7293,2.7323,2.7365,2.7387,2.7364,2.7471,2.7443,2.7484,2.7483,2.7505,2.7503,2.761,2.7525,2.7525,2.7525,2.7525,0,2.6877,2.6935,2.6972,2.7013,2.7079,2.71,2.7164,2.719,2.7229,2.7276,2.7284,2.7328,2.7355,2.7404,2.7422,2.7489,2.7503,2.7516,2.752,2.7515,2.7513,2.7533,2.7528,2.7528,2.7527,2.7527,2.7526,0,2.6942,2.6969,2.7043,2.7094,2.7109,2.7154,2.7198,2.7239,2.7263,2.7322,2.7338,2.7374,2.7432,2.7458,2.753,2.7542,2.7618,2.7619,2.7602,2.7604,2.7642,2.7638,2.7765,2.7783,2.7687,2.7688,2.7689,0,2.6993,2.7037,2.7093,2.7126,2.7153,2.7205,2.7239,2.7262,2.7297,2.7354,2.7388,2.7446,2.7493,2.7585,2.7618,2.7673,2.7674,2.7715,2.7683,2.7676,2.7674,2.7671,2.7675,2.7721,2.7722,2.7723,2.7723,0,2.708,2.7092,2.7141,2.7195,2.7235,2.7279,2.7322,2.7348,2.7378,2.7418,2.7476,2.7513,2.7586,2.7643,2.77,2.7728,2.7731,2.7733,2.7746,2.774,2.7728,2.7734,2.7617,2.773,2.7729,2.7729,2.7729,2.7728,2.7139,2.7179,2.7225,2.7279,2.7314,2.7354,2.7395,2.7424,2.7473,2.7534,2.7545,2.7608,2.7654,2.773,2.7761,2.781,2.78,2.7818,2.7823,2.7826,2.7828,2.7721,2.7821,2.782,2.782,2.782,2.782,0,2.7226,2.7256,2.7306,2.7366,2.7409,2.7409,2.7456,2.7492,2.7547,2.759,2.7636,2.7704,2.776,2.7798,2.7854,2.7887,2.7889,2.7901,2.7898,2.7904,2.7834,2.7817,2.7898,2.7898,2.7898,2.7898,2.7898,2.7898,2.7277,2.7344,2.7361,2.7446,2.7476,2.7537,2.7564,2.7602,2.7636,2.7711,2.7757,2.7782,2.7823,2.7883,2.7934,2.7944,2.7964,2.7975,2.7985,2.7918,2.7909,2.7902,2.7886,2.798,2.798,2.8051,2.8052,2.8052]},{"header":{"parameterUnit":"m.s-1","parameterCategory":1,"la1":30.2991,"la2":30.254,"lo1":-89.0895,"lo2":-89.0444,"dy":0.0017,"dx":0.0017,"nx":28,"ny":28,"refTime":"2023-08-09T09:00:00:Z","depth":0,"parameterNumber":3,"parameterNumberName":"V-component_of_WINDS"},"data":[0,0,0,0,0,0,0,0,0,0,0,0,0,0,0,0,0,0,0,0,0,0,0,0,0,0,0,0,0,0,0,0,0,0,0,0,0,0,0,0,0,0,0,0,0,0,0,0,0,0,0,0,0,0,0,0,0,0,4.227,4.2271,0,4.2286,4.2286,4.2286,4.2308,4.2309,4.2309,4.2309,4.2324,4.2324,4.2324,0,0,0,0,0,0,0,0,0,0,0,0,0,4.2258,4.2259,4.227,4.2271,4.2271,4.2286,4.2286,4.2286,4.2308,4.2309,4.2309,4.2309,4.2324,4.2324,4.2324,0,0,0,0,0,0,0,0,0,0,0,0,0,4.2268,4.2259,4.227,4.2284,4.2285,4.2286,4.2286,4.2286,4.2308,4.2309,4.2309,4.231,4.2324,4.2324,4.2324,4.2312,0,0,4.2324,4.2324,0,0,0,0,0,0,0,0,4.2267,4.2268,4.2281,4.2283,4.2284,4.2296,4.2287,4.2295,4.2308,4.2299,4.2309,4.231,4.2314,4.2315,4.2316,4.2313,4.2314,4.2324,4.2324,4.2324,4.2324,0,0,0,0,0,0,0,4.2266,4.2268,4.2277,4.2282,4.2283,4.2288,4.229,4.2289,4.2303,4.23,4.2302,4.2303,4.2315,4.2316,4.2317,4.2314,4.2324,4.2324,4.2324,4.2324,4.2301,4.2301,0,0,0,0,0,0,4.2264,4.2267,4.2276,4.2277,4.2277,4.2288,4.229,4.2291,4.2303,4.2306,4.2303,4.2304,4.2316,4.2317,4.2317,4.2304,4.2324,4.2324,4.2324,4.2302,4.2301,4.23,0,0,0,0,0,0,4.2264,4.2265,4.2275,4.2272,4.2274,4.2288,4.2289,4.2291,4.2293,4.2305,4.2308,4.2302,4.2316,4.2317,4.2313,4.2305,4.2324,4.2324,4.2303,4.2302,4.2301,4.2278,0,0,0,0,0,0,4.2263,4.2264,4.2261,4.2272,4.2274,4.2272,4.2288,4.2291,4.2293,4.2295,4.2305,4.2307,4.2317,4.2313,4.2313,4.2305,4.2324,4.2303,4.2302,4.2301,4.228,4.2276,4.2274,0,0,0,0,0,4.2263,4.2254,4.226,4.2261,4.227,4.2271,4.2272,4.2284,4.2292,4.2288,4.2296,4.2307,4.2306,4.2313,4.2313,4.2305,4.2304,4.2302,4.2301,4.2281,4.2277,4.2274,0,0,0,0,0,0,4.224,4.2255,4.2263,4.2257,4.2263,4.2275,4.227,4.228,4.2283,4.2284,4.2298,4.23,4.2294,4.2299,4.2306,4.2294,4.2307,4.2305,4.2291,4.2287,4.2285,4.2283,4.2324,0,0,0,0,0,4.2235,4.2235,4.2248,4.2242,4.2244,4.2257,4.2258,4.2266,4.2272,4.2274,4.2282,4.2287,4.2288,4.2288,4.229,4.2281,4.2282,4.2275,4.2272,4.227,4.2268,4.2263,4.2259,4.2296,4.2296,4.2296,0,0,4.2223,4.2231,4.2231,4.2237,4.2243,4.2242,4.2258,4.2257,4.2256,4.2274,4.2271,4.2276,4.2283,4.2276,4.2274,4.228,4.2259,4.2268,4.2266,4.2266,4.2261,4.2258,4.2254,4.2295,4.2295,4.2295,0,0,4.2202,4.2208,4.2203,4.2208,4.2216,4.2224,4.2223,4.2234,4.2238,4.2235,4.2248,4.2247,4.2249,4.2253,4.2255,4.2234,4.2244,4.2234,4.2219,4.2213,4.221,4.2208,4.22,4.2197,4.2233,4.2233,4.2233,0,4.2186,4.2186,4.2199,4.2197,4.2199,4.2216,4.221,4.2214,4.2222,4.2223,4.223,4.2232,4.2238,4.2231,4.2226,4.2228,4.2226,4.2233,4.221,4.2207,4.2205,4.2198,4.2194,4.2231,4.2232,4.2232,4.2232,0,4.2166,4.2165,4.216,4.2168,4.2169,4.2166,4.2178,4.2178,4.2186,4.2194,4.219,4.2197,4.22,4.2199,4.2208,4.2194,4.2198,4.2207,4.222,4.22,4.2193,4.219,4.223,4.223,4.223,4.2231,0,0,4.213,4.2145,4.2143,4.2146,4.2155,4.2155,4.2152,4.2155,4.2154,4.2159,4.2156,4.2157,4.2165,4.2168,4.2176,4.2172,4.2154,4.2182,4.2182,4.2175,4.2138,4.213,4.2127,4.216,4.216,4.216,4.2137,0,4.211,4.2105,4.2117,4.2109,4.2108,4.2124,4.2121,4.2126,4.2133,4.2133,4.214,4.214,4.2152,4.2153,4.2149,4.2157,4.2146,4.2159,4.2157,4.2157,4.2154,4.2123,4.2115,4.2094,4.2135,4.2134,4.2134,0,4.2085,4.2088,4.208,4.209,4.209,4.2087,4.2091,4.2091,4.2097,4.2102,4.2104,4.2115,4.2111,4.2124,4.2119,4.2127,4.2127,4.2131,4.213,4.213,4.2143,4.2121,4.2088,4.2084,4.213,4.213,4.2131,0,4.2058,4.2061,4.2057,4.2059,4.207,4.2068,4.2072,4.2079,4.208,4.2083,4.2083,4.2086,4.2087,4.2088,4.2099,4.2107,4.2092,4.2106,4.2095,4.2095,4.2091,4.2091,4.2056,4.2092,4.2092,4.2092,4.2092,0,4.2034,4.2028,4.2045,4.2042,4.2036,4.2049,4.2042,4.2048,4.2054,4.2052,4.2066,4.2064,4.2078,4.2077,4.2085,4.2079,4.208,4.2083,4.2085,4.2082,4.2081,4.2081,4.2082,4.2092,4.2092,4.2092,4.2092,0,4.2003,4.2014,4.201,4.2021,4.2023,4.2018,4.2027,4.2025,4.2032,4.203,4.203,4.2042,4.2041,4.2052,4.2054,4.2059,4.2049,4.2054,4.2047,4.2048,4.2037,4.2037,4.2,4.1995,4.2036,4.2035,4.2035,0,4.1986,4.1981,4.1992,4.1992,4.1996,4.1995,4.1996,4.201,4.201,4.2016,4.2013,4.2013,4.2015,4.2013,4.2021,4.2023,4.2027,4.2014,4.2028,4.2024,4.2026,4.2026,4.2025,4.2011,4.201,4.201,4.201,0,4.1954,4.1959,4.1961,4.1964,4.1964,4.1967,4.1971,4.197,4.1984,4.1984,4.1984,4.1985,4.1986,4.1987,4.1989,4.1993,4.2003,4.2006,4.2003,4.1999,4.1994,4.1995,4.2038,4.2006,4.2006,4.2007,4.2007,4.2007,4.1929,4.1925,4.1932,4.1933,4.1937,4.194,4.1938,4.1945,4.1946,4.1948,4.1956,4.1954,4.196,4.1965,4.1968,4.1966,4.1973,4.1969,4.1968,4.1967,4.1964,4.1995,4.1967,4.1967,4.1967,4.1967,4.1967,0,4.1897,4.1902,4.1902,4.1907,4.1907,4.1918,4.1922,4.1921,4.192,4.1924,4.1925,4.1925,4.1925,4.1934,4.1935,4.1932,4.1936,4.1931,4.1931,4.1932,4.1959,4.1961,4.1928,4.1928,4.1928,4.1928,4.1928,4.1928,4.188,4.1875,4.1881,4.1878,4.1883,4.1882,4.1883,4.1886,4.189,4.1889,4.1889,4.1895,4.19,4.1902,4.1902,4.1905,4.1904,4.1897,4.1901,4.1926,4.193,4.1934,4.1935,4.1897,4.1897,4.1874,4.1874,4.1874]}]]